Regional Weather Roundup
Issued by NWS

Home | Current Version | Previous Version | Text Only | Print | Product List | Glossary Off
Versions: 1 2 3 4 5 6 7 8 9 10 11 12 13 14 15 16 17 18 19 20 21 22 23 24 25 26 27 28 29 30 31 32 33 34 35 36 37 38 39 40 41 42 43 44 45 46 47 48 49 50

844
ASUS45 KBOU 231307
RWRCO

WEATHER ROUNDUP FOR COLORADO
NATIONAL WEATHER SERVICE DENVER/BOULDER CO
700 AM MDT FRI JUN 23 2017

NOTE: "FAIR" INDICATES FEW OR NO CLOUDS BELOW 12000 FEET WITH NO
SIGNIFICANT WEATHER AND/OR OBSTRUCTIONS TO VISIBILITY.

COZ001>005-013-030-031-231400-
...NORTHWEST COLORADO...

CITY           SKY/WX    TMP DP  RH WIND       PRES   REMARKS
CRAIG          FAIR      50  38  63 CALM      30.25R
HAYDEN         FAIR      46  32  57 CALM      30.26R
MEEKER         FAIR      47  40  76 CALM      30.26R
RABBIT EARS PA FAIR      43  32  65 CALM      30.44R
STEAMBOAT SPGS FAIR      45  36  70 CALM      30.26R
WALDEN         FAIR      41  36  81 CALM      30.34R
$$

COZ006>008-011-231400-
...WEST CENTRAL VALLEYS...

CITY           SKY/WX    TMP DP  RH WIND       PRES   REMARKS
GRAND JUNCTION FAIR      69  32  25 NW10      30.09R
MONTROSE       FAIR      60  34  37 SE10      30.17R
EAGLE          SUNNY     52  37  58 MISG      30.28R
RIFLE          FAIR      55  38  52 CALM      30.18R
DELTA          FAIR      65  36  34 CALM      30.12R
NUCLA          FAIR      59  32  36 SE10      30.18R
$$

COZ017>023-064>068-231400-
...SOUTHWEST COLORADO...

CITY           SKY/WX    TMP DP  RH WIND       PRES   REMARKS
DURANGO        FAIR      53  33  46 CALM      30.15R
CORTEZ         FAIR      56  39  53 NE6       30.14R
PAGOSA SPRINGS FAIR      53  33  46 NE7       30.23R
TELLURIDE      FAIR      53  31  43 SE3       30.37S
WOLF CREEK PAS FAIR      50  27  40 W3        30.60R
$$

COZ009-010-012-014-032>034-037-058>063-231400-
...CENTRAL COLORADO...

CITY           SKY/WX    TMP DP  RH WIND       PRES   REMARKS
ASPEN          FAIR      51  36  56 SW3       30.28S
BUENA VISTA    FAIR      54  36  50 CALM      30.30S
COPPER MTN     FAIR      46  27  46 CALM      30.54S
BERTHOUD PASS  HAZE      34  21  60 SE20      30.56F VSB<1/4 WCI  22
COTTONWOOD PAS FAIR      55  32  41 CALM      30.41R
GUNNISON       FAIR      47  36  65 CALM      30.29R
KREMMLING      NOT AVBL
LEADVILLE      FAIR      44  30  57 N5        30.40R
MONARCH PASS   FAIR      45  30  57 SW9       30.64S
SALIDA         FAIR      57  37  47 NW6       30.36R
SUNLIGHT       FAIR      45  28  53 NE6       30.49S
WILKERSON PASS PTSUNNY   43  39  87 NE12      30.53S
$$

COZ069>075-231400-
...SAN LUIS VALLEY/SANGRE DE CRISTO MOUNTAINS...

CITY           SKY/WX    TMP DP  RH WIND       PRES   REMARKS
ALAMOSA        FAIR      50  45  83 CALM      30.23R
DEL NORTE      FAIR      56  31  38 W15       30.26R
LA VETA PASS   FAIR      50  43  76 N18G26    30.53R
SAGUACHE       FAIR      59  32  36 NW3       30.25R
$$

COZ035-036-038>040-231400-
...NORTHERN COLORADO FRONT RANGE...

CITY           SKY/WX    TMP DP  RH WIND       PRES   REMARKS
DENVER INTL AP CLOUDY    48  45  89 NE18G25   30.32R
DMNS CITY PARK   N/A     49  46  91 E7G18     30.35R
AURORA         LGT RAIN  46  46  99 NE20G31   30.34R
FRONT RANGE AP LGT RAIN  48  46  93 NE22G29   30.32R
ERIE MUNI ARPT LGT RAIN  50  47  89 N5        30.36R
BOULDER MUN AP LGT RAIN  50  45  81 CALM      30.35S
CENTENNIAL     LGT RAIN  52  51  97 N24G37    30.34R
BROOMFIELD     LGT RAIN  48  46  93 N7        30.37R
FORT COLLINS   CLOUDY    52  41  66 NE13      30.32R
LONGMONT       CLOUDY    54  44  68 NE5       30.36R
$$

COZ041-046-047-076>085-087-088-231400-
...PIKES PEAK/PALMER DIVIDE AND SOUTHERN FOOTHILLS...

CITY           SKY/WX    TMP DP  RH WIND       PRES   REMARKS
COLO. SPRINGS  CLOUDY    61  54  77 N12G26    30.26R
A. F. ACADEMY  CLOUDY    58  53  83 N20G29    30.27R
SCHRIEVER AFB  NOT AVBL
CHEYENNE MTN   NOT AVBL
ELLICOTT       CLOUDY   N/A N/A N/A E17G25    30.25R
FALCON           N/A     56  53  89 N24G32    30.30R FOG
FORT CARSON    CLOUDY    61  53  74 N24G31    30.21R
LIMON          CLOUDY    53  47  79 NE10      30.26R
MONUMENT HILL  CLOUDY    46  46 100 NE10G17   30.33R
CANON CITY     CLOUDY    63  59  88 MISG      30.20R
WALSENBURG     NOT AVBL
TRINIDAD       CLOUDY    59  49  69 NW6       30.19R
$$

COZ042>045-048>051-090-091-231400-
...NORTHEAST COLORADO...

CITY           SKY/WX    TMP DP  RH WIND       PRES   REMARKS
GREELEY ARPT   CLOUDY    52  43  71 N12       30.32R
AKRON          CLOUDY    52  44  74 N17G26    30.26R
BURLINGTON     CLOUDY    51  50  96 N8        30.22R
WRAY           CLOUDY    55  46  71 N12G18    30.23R
YUMA           NOT AVBL
STERLING       CLOUDY    54  46  76 N15       30.25R
HOLYOKE        NOT AVBL
FORT MORGAN    CLOUDY    51  45  80 N14       30.28R
$$

COZ086-089-092>099-231400-
...SOUTHEAST COLORADO...

CITY           SKY/WX    TMP DP  RH WIND       PRES   REMARKS
PUEBLO         CLOUDY    65  56  72 NE13      30.17R
LA JUNTA       CLOUDY    64  50  60 NE17      30.15R
LAMAR          CLOUDY    63  50  62 NE14      30.12R
SPRINGFIELD      N/A     61  56  83 NE21G35   30.12R
$$




USA.gov is the U.S. government's official web portal to all federal, state and local government web resources and services.